TBM YHBA-YBCG

Flight info

Callsign TBM
Flight time N/A
Altitude 19000
Route SU DCT BN DCT LAGOB
Aircraft TBM8/L-SDFGRWY/S

Departure

Time 2026-04-24 09:02
Airport Hervey Bay Airport (YHBA)

Arrival

Time N/A
Airport Gold Coast Airport (YBCG)
Time Latitude Longitude Altitude Speed Heading
2026-04-24 08:46 -25.32218 152.88693 55 ft 0 kts 28°
2026-04-24 08:57 -25.32217 152.88694 52 ft 1 kts 19°
2026-04-24 08:57 -25.32219 152.88671 54 ft 5 kts 232°
2026-04-24 08:58 -25.32218 152.88650 54 ft 6 kts 299°
2026-04-24 08:58 -25.32198 152.88612 54 ft 3 kts 303°
2026-04-24 08:58 -25.32185 152.88592 54 ft 4 kts 303°
2026-04-24 08:58 -25.32175 152.88559 53 ft 3 kts 246°
2026-04-24 08:59 -25.32206 152.88538 53 ft 8 kts 206°
2026-04-24 08:59 -25.32236 152.88513 53 ft 6 kts 270°
2026-04-24 08:59 -25.32234 152.88507 54 ft 0 kts 302°
2026-04-24 09:01 -25.32214 152.88468 53 ft 26 kts 299°
2026-04-24 09:01 -25.32026 152.88091 59 ft 84 kts 297°
2026-04-24 09:01 -25.31692 152.87416 187 ft 112 kts 293°
2026-04-24 09:02 -25.31288 152.86630 562 ft 118 kts 293°
2026-04-24 09:02 -25.30844 152.85833 932 ft 128 kts 292°
2026-04-24 09:02 -25.30408 152.84945 1229 ft 142 kts 285°
2026-04-24 09:02 -25.29979 152.83945 1653 ft 147 kts 292°
2026-04-24 09:03 -25.29106 152.83324 2053 ft 158 kts 359°
2026-04-24 09:03 -25.28188 152.83752 2450 ft 136 kts 66°
2026-04-24 09:03 -25.28018 152.84630 2907 ft 113 kts 105°
2026-04-24 09:03 -25.28201 152.85443 3328 ft 106 kts 124°
2026-04-24 09:04 -25.28717 152.85981 3749 ft 102 kts 149°
2026-04-24 09:04 -25.29327 152.86394 4153 ft 105 kts 149°
2026-04-24 09:04 -25.29961 152.86819 4568 ft 107 kts 149°
2026-04-24 09:04 -25.30610 152.87243 4987 ft 109 kts 149°
2026-04-24 09:05 -25.31264 152.87663 5382 ft 111 kts 149°
2026-04-24 09:05 -25.31937 152.88097 5767 ft 113 kts 149°
2026-04-24 09:05 -25.32662 152.88424 6142 ft 115 kts 173°
2026-04-24 09:05 -25.33458 152.88463 6574 ft 114 kts 170°
2026-04-24 09:06 -25.34249 152.88563 6947 ft 116 kts 170°
2026-04-24 09:06 -25.35053 152.88676 7330 ft 117 kts 169°
2026-04-24 09:06 -25.35861 152.88800 7704 ft 117 kts 169°
2026-04-24 09:06 -25.36666 152.88929 8078 ft 119 kts 169°
2026-04-24 09:07 -25.37494 152.89063 8472 ft 120 kts 170°
2026-04-24 09:07 -25.38317 152.89196 8866 ft 121 kts 169°
2026-04-24 09:07 -25.40000 152.89471 9663 ft 123 kts 170°
2026-04-24 09:08 -25.40850 152.89610 10068 ft 124 kts 171°
2026-04-24 09:08 -25.41702 152.89750 10419 ft 126 kts 171°
2026-04-24 09:08 -25.42574 152.89892 10768 ft 127 kts 171°
2026-04-24 09:08 -25.43460 152.90038 11121 ft 129 kts 170°
2026-04-24 09:09 -25.44343 152.90181 11478 ft 130 kts 171°
2026-04-24 09:09 -25.45235 152.90328 11843 ft 131 kts 171°
2026-04-24 09:09 -25.46149 152.90478 12192 ft 133 kts 170°
2026-04-24 09:09 -25.47061 152.90627 12553 ft 134 kts 171°
2026-04-24 09:10 -25.47988 152.90779 12919 ft 135 kts 171°